Location: Curicchi
(45.0167°N, 12.0500°E)
Time: 18:02:26
(UTC+00:00)

STARLINK-41 - Pass Details

Date: 07 June 2020
Orbit: 358 x 360 km, 53.0° (Epoch: 02 July)

Event Time Altitude Azimuth Distance (km) Brightness Sun altitude
Exits shadow 00:40:07 28° 298° (WNW) 721 4.2 -19.2°
Maximum altitude 00:41:01 35° 337° (NNW) 610 4.2 -19.1°
Drops below altitude 10° 00:43:49 10° 45° (NE) 1,350 6.6 -19.0°
Sets 00:45:57 0° 55° (NE) 2,200 7.7 -18.8°
